1st Responders/1st Detectors/Storm Spotters Weather Summary for Whitley County, KY

Forecast Maps


Reg. NEXRAD Animation


National Fire Danger: Day 1 & 2 Map

Current NWS Watch/Warnings

SPC Convective Day 1 Outlook


Day 2 Outlook

(Click images to enlarge|Page will refresh every 5 minutes)
UK Ag. Weather Center Desktop Severe Weather Service[HERE]
Whitley County, KY Hazardous Weather Outlook Webcast
(9 AM to 9 PM Mon-Fri)
[Fast]
[Dial-up]


UKAWC 1st Detectors/1st Responders Precision Weather Forecast For WHITLEY County, Kentucky
(based on the NWS County Digital Forecast)

ISSUED AT 01:00 UTC ON SUNDAY JUN 25 2017
DAY SATURDAY SUNDAY
EDT 3HR 10P 11P MIDN 1A 2A 3A 4A 5A 6A 7A 8A 9A 10A 11A NOON 1P 2P 3P 4P 5P 6P 7P
MAX/MIN -- -- -- -- -- -- -- -- -- -- 56° -- -- -- -- -- -- -- -- -- -- 77°
TEMP 67° 65° 63° 63° 61° 59° 58° 56° 56° 58° 59° 63° 67° 72° 74° 74° 76° 76° 77° 77° 76° 74°
SKY COVER 22% 23% 24% 25% 26% 28% 30% 32% 30% 28% 26% 21% 16% 12% 13% 15% 16% 16% 15% 15% 16% 16%
Clouds
DEW PT 58° 58° 58° 58° 58° 56° 56° 54° 54° 54° 54° 54° 54° 52° 52° 50° 49° 49° 49° 50° 52° 52°
RH 72% 78% 83% 84% 86% 89% 93% 93% 92% 89% 83% 72% 60% 51% 46% 42% 39% 38% 38% 38% 41% 46%
POP 12HR -- -- -- -- -- -- -- -- -- -- 3% -- -- -- -- -- -- -- -- -- -- --
RAIN/SNOW (liq.equ) -- -- -- -- 0.00in -- -- -- -- -- 0.00in -- -- -- -- -- 0.00in -- -- -- -- --
SNOWFALL -- -- -- -- 0in -- -- -- -- -- 0in -- -- -- -- -- 0in -- -- -- -- --
WIND SPEED(MPH) 5 5 2 2 2 2 1 1 1 1 2 2 5 5 5 6 6 7 7 7 7 7
WIND Gust(MPH) 10 10 10 10 9 8 7 7 7 6 5 7 7 8 8 9 9 10 14 14 13 8
WIND DIR NW NW NW NW NW NW NW NW NW NW NW NW NW NW NW NW NW NW W W W W
DEW -- -- Mod Dew Mod Dew Mod Dew Mod Dew Mod Dew Mod Dew Mod Dew Mod Dew Mod Dew Lgt Dew -- -- -- -- -- -- -- -- -- --
HeatIndex 67 65 63 63 61 59 58 56 56 58 59 63 67 72 74 74 76 76 77 77 76 74
Rain Showers -- -- -- -- -- -- -- -- -- -- -- -- -- -- -- -- -- -- -- -- -- --
Thunder Storm -- -- -- -- -- -- -- -- -- -- -- -- -- -- -- -- -- -- -- -- -- --
WIND CHILL -- -- -- -- -- -- -- -- -- -- -- -- -- -- -- -- -- -- -- -- -- --
SPRAY COND
DRY COND
LIVESTOCK HEATSTRESS 65.74 64.25 62.61 62.63 60.83 58.99 58.03 56.11 56.12 58.05 58.98 62.35 65.20 68.44 69.49 69.15 70.23 70.13 70.79 70.79 70.42 69.49



DAY MONDAY TUESDAY WEDNESDAY THURSDAY FRIDAY FRI SAT
EDT 6HR 8P 9P 10P 11P MIDN 1A 2A 3A 4A 5A 6A 7A 8A 9A 11A 2P 5P 8P 11P 2A 5A 8A 11A 2P 5P 8P 2A 8A 2P 8P 2A 8A 2P 8P 2A 8A 2P 8P 2A 8A 2P 8P
MAX/MIN -- -- -- -- -- -- -- -- -- -- -- -- 54° -- -- -- 74° -- -- -- -- 54° -- -- 74° -- -- 52° 83° -- -- 63° 83° -- -- 65° 85° -- -- 67° 83° --
TEMP 72° 68° 65° 63° 59° 58° 56° 56° 54° 54° 54° 56° 58° 61° 68° 74° 74° 67° 58° 54° 54° 56° 67° 70° 74° 70° 52° 56° 79° 76° 65° 65° 81° 77° 68° 67° 83° 79° 68° 68° 79° 77°
SKY COVER 17% 17% 16% 15% 16% 18% 19% 18% 17% 16% 16% 17% 18% 18% 18% 22% 27% 40% 47% 64% 68% 57% 39% 24% 17% 5% 1% 3% 8% 16% 19% 30% 36% 33% 30% 50% 54% 48% 52% 75% 76% 80%
Clouds
DEW PT 54° 54° 54° 54° 54° 52° 52° 52° 52° 52° 52° 54° 54° 52° 50° 49° 49° 52° 52° 50° 50° 52° 52° 50° 50° 52° 50° 52° 54° 56° 58° 59° 63° 65° 63° 65° 65° 67° 65° 65° 67° 67°
RH 53% 59% 67% 72% 80% 80% 86% 89% 90% 89% 93% 92% 86% 72% 52% 43% 40% 58% 80% 85% 89% 86% 58% 49% 44% 52% 92% 86% 42% 49% 78% 83% 54% 64% 84% 90% 55% 65% 90% 90% 67% 71%
POP 12HR 3% -- -- -- -- -- -- -- -- -- -- -- 2% -- -- -- -- 4% -- -- -- 23% -- -- -- 22% -- 0% -- 0% -- 0% -- 12% -- 11% -- 17% -- 27% -- 52%
RAIN/SNOW (liq.equ) 0.00in -- -- -- -- -- 0.00in -- -- -- -- -- 0.00in -- -- 0.00in -- 0.00in -- 0.00in -- 0.04in -- 0.00in -- 0.00in -- -- -- -- -- -- -- -- -- -- -- -- -- -- -- --
SNOWFALL 0in -- -- -- -- -- 0in -- -- -- -- -- 0in -- -- 0in -- 0in -- 0in -- 0in -- 0in -- 0in -- -- -- -- -- -- -- -- -- -- -- -- -- -- -- --
WIND SPEED(MPH) 6 5 5 2 2 1 1 1 1 1 1 1 2 5 7 7 7 6 2 1 1 1 5 6 6 2 1 2 6 6 5 5 7 7 5 5 7 7 5 6 7 6
WIND DIR W W W W W W W W W W W SW SW W W W W NW W NW NW S NW NW NW N SE SE S S S S SW S S S SW S S S SW SW
HeatIndex 72 68 65 63 59 58 56 56 54 54 54 56 58 61 68 74 74 67 58 54 54 56 67 70 74 70 52 56 80 76 65 65 82 77 68 67 86 82 68 68 82 77
Rain Showers -- -- -- -- -- -- -- -- -- -- -- -- -- -- -- -- -- -- -- Slight Chance Slight Chance Slight Chance -- -- -- -- -- -- -- -- -- -- -- -- -- -- Slight Chance Slight Chance Slight Chance Chance Chance Chance
Thunder Storm -- -- -- -- -- -- -- -- -- -- -- -- -- -- -- -- -- -- -- -- -- -- -- -- -- -- -- -- -- -- -- -- -- -- -- -- Slight Chance -- -- -- Chance Slight Chance
WIND CHILL -- -- -- -- -- -- -- -- -- -- -- -- -- -- -- -- -- -- -- -- -- -- -- -- -- -- -- -- -- -- -- -- -- -- -- -- -- -- -- -- -- --
SPRAY COND
DRY COND
LIVESTOCK HEATSTRESS 68.59 65.93 63.87 62.35 58.98 58.09 56.22 56.17 54.26 54.29 54.18 56.12 58.06 60.66 65.57 69.23 68.98 65.11 58.09 54.40 54.29 56.22 65.11 66.86 69.32 67.04 52.30 56.22 72.56 71.18 64.25 64.42 75.38 73.40 67.19 66.55 77.01 75.11 67.49 67.49 75.33 74.10

Click on individual weather variable above in left-hand column (ie., TEMP, RH, QPF 12HR) to view state forecast maps






NWS 48 Hr. Forecast Maps,

Regional Hourly Observations For WHITLEY County, Kentucky
Issued at 900 PM EDT SAT JUN 24 2017
SOUTHEAST KENTUCKY
  
CITY           SKY/WX    TMP DP  RH WIND       PRES   REMARKS
JACKSON        PTCLDY    72  57  59 NW3       30.07R                  
LONDON         CLOUDY    73  57  57 NW6       30.07R                  
SOMERSET       CLEAR     72  55  56 W3        30.09R                  
MIDDLESBORO    PTCLDY    71  60  68 W5        30.08R                  
MONTICELLO     MOCLDY    71  61  70 NW6       30.11R                  


Current NOWCAST not available:
Nowcasts are not issued routinely during fair weather. Only when
precipitation or other significant weather is occuring in this county will these
forecasts be issued. Currently, there is no short term forecast in effect.


Fire Weather Forecast For WHITLEY County, KY
Provided by the National Weather Service:

Issued at: Sat Jun 24 21:05:01 EDT 2017


.TODAY...
Sky/weather.........Cloudy then becoming mostly sunny. Patchy fog 
                    in the morning. A slight chance of showers 
                    in the morning. 
Max Temperature.....Around 80. 
   24 hr trend......1 degree cooler. 
Min Humidity........36-46 percent. 
   24 hr trend......27 percent drier. 
20-foot winds.......Northwest winds 5 to 10 mph. 
LAL.................1. 
Haines Index........4 or low potential for large plume dominated 
                    fire growth. 
Mixing Height.......5100 ft agl. 
Transport Winds.....Northwest around 10 mph. 
Dispersion Index....58. 
Vent Rate...........Good (58200 knot-ft). 
ADI.................15 increasing to 55 in the afternoon. 
LVORI...............5. 
Prob of precip......20 percent. 
QPF (inches)........0.03 inches. 

.TONIGHT...
Sky/weather.........Partly cloudy. 
Min Temperature.....Around 56. 
   24 hr trend......10 degrees cooler. 
Max Humidity........95-100 percent. 
   24 hr trend......Unchanged. 
20-foot winds.......Northwest winds at 5 mph or less. 
LAL.................1. 
Haines Index........3 or very low potential for large plume 
                    dominated fire growth. 
ADI.................46 decreasing to 2 late. 
LVORI...............7. 
Prob of precip......10 percent. 
QPF (inches)........NONE. 

.SUNDAY...
Sky/weather.........Mostly sunny. 
Max Temperature.....Around 75. 
   24 hr trend......5 degrees cooler. 
Min Humidity........36-44 percent. 
   24 hr trend......2 percent drier. 
20-foot winds.......Northwest winds around 5 mph. 
LAL.................1. 
Haines Index........3 or very low potential for large plume 
                    dominated fire growth. 
Mixing Height.......6200 ft agl. 
Transport Winds.....Northwest around 10 mph. 
Dispersion Index....79. 
Vent Rate...........Good (78600 knot-ft). 
ADI.................35 increasing to 66 in the afternoon. 
LVORI...............5. 
Prob of precip......0 percent. 
QPF (inches)........NONE. 


SPC's Fire Weather Web Tool (Excellent!), SPC's Fire Weather Outlooks, NWS Fire Weather WEB, Fire Danger Class Map,
Keetch-Byram Drought Index, ROMAN Web, Haines Index ,
WFAS's 10-hr Dead Fuel Moist., WFAS's 100-hr Dead Fuel Moist., Probablity of Ignition, Visual blackness Map, Palmer Drought Index, HPC's Rainfall Forecast Maps


Hazardous Weather Outlook For WHITLEY County, Kentucky
337 PM EDT Sat Jun 24 2017

 DAY ONE  Tonight.

No hazardous weather is expected at this time.

 DAYS TWO THROUGH SEVEN  Sunday through Friday.

There is a slight chance of a thunderstorm very close to the 
Virginia border on Tuesday, and a slight chance of thunderstorms 
in the Cumberland Valley on Thursday. Thunderstorms are also 
possible on Friday. 

 SPOTTER INFORMATION STATEMENT  

Spotter activation is not anticipated.

Latest WHITLEY County, Kentucky Watches, Warnings and Advisories.
Additional Drought Info.: UKAWC Drought Page, Kentucky Drought Watch


7-Day Forecast For WHITLEY County, KY

TONIGHT
Partly cloudy. Patchy valley fog late. Lows in the upper 50s. Light winds.

SUNDAY
Sunny. Highs in the upper 70s. Light winds.

SUNDAY NIGHT
Mostly clear. Patchy valley fog near dawn. Lows in the mid 50s. Light winds.

MONDAY
Sunny. Highs in the mid 70s. Light winds.

MONDAY NIGHT
Partly cloudy in the evening, then mostly cloudy with a 20 percent chance of showers late. Lows in the lower 50s. Light winds.

TUESDAY
Sunny with a 20 percent chance of showers. Highs in the mid 70s.

TUESDAY NIGHT
Clear. Lows 50 to 55.

WEDNESDAY
Sunny. Highs in the lower 80s.

WEDNESDAY NIGHT
Mostly clear. Lows in the lower 60s.

THURSDAY
Mostly sunny. Highs in the mid 80s.

THURSDAY NIGHT
Partly cloudy. Lows in the mid 60s.

FRIDAY
Partly sunny with a 20 percent chance of showers and thunderstorms. Highs in the mid 80s.

FRIDAY NIGHT
Mostly cloudy with a 20 percent chance of showers. Lows in the mid 60s.

SATURDAY
Mostly cloudy with a 50 percent chance of showers and thunderstorms. Highs in the mid 80s.

Ag Weather Center, Department of Biosystems & Agricultural Engineering, University of Kentucky